Location: Vancouver
(49.2500°N, 123.1330°W)
Time: 02:48:55
(UTC-08:00)

Cosmos 676 Rocket - Visible Passes

Search period start: 22 February 2018 00:00
Search period end: 04 March 2018 00:00
Orbit: 754 x 785 km, 74.0° (Epoch: 22 February)

Date Brightness Start Highest point End Pass type
(mag) Time Alt. Az. Time Alt. Az. Time Alt. Az.
22 Feb 6.8 05:56:31 10° NNE 05:58:08 11° NE 05:59:45 10° NE visible
24 Feb 6.3 06:23:46 10° N 06:27:54 22° NE 06:32:01 10° E visible
25 Feb 6.6 05:47:38 10° N 05:50:50 16° NE 05:54:03 10° E visible
26 Feb 6.9 05:12:02 10° NNE 05:13:42 11° NE 05:15:21 10° NE visible
27 Feb 5.9 06:15:37 10° N 06:20:24 32° NE 06:25:09 10° ESE visible
28 Feb 6.4 05:39:18 10° N 05:43:27 22° NE 05:47:35 10° E visible
01 Mar 6.7 05:03:10 10° N 05:06:24 16° NE 05:09:37 10° E visible
02 Mar 7.0 04:27:33 10° NNE 04:29:15 11° NE 04:30:58 10° NE visible
02 Mar 5.2 06:07:36 10° NNW 06:12:48 47° ENE 06:17:55 10° SE visible
03 Mar 5.9 05:31:10 10° N 05:35:57 32° NE 05:40:42 10° ESE visible
03 Mar 6.7 22:04:46 11° N 22:04:46 11° N 22:04:55 10° NNE visible
